sat.trackr.live / text

‹ back to catalog

STARLINK-30813

NORAD 58213 · 2023-170H

PAYLOAD ACTIVE UNKNOWN

§ Identity

Operator
Country
US
Launch date
2023-11-03
Launch site
AFETR
Launch vehicle
Mass (kg)
RCS (m²)

Purposes: comms

External: N2YO · Heavens-Above · Gunter

§ Orbital elements

Epoch: 2026-09-20T03:59:36.962592Z

Period
94.27 min
Inclination
43.0003°
Eccentricity
0.0001334
Mean motion
15.27577815 rev/d
Perigee alt
482.1 km
Apogee alt
484.0 km
Semi-major
6,861.2 km
B*
1.0800e-5
RAAN
175.7999°
Arg perigee
263.8729°
Mean anomaly
96.1971°
Rev number
16,004

§ Raw data

STARLINK-308131 58213U 23170H   26263.16640003  .00000035  00000+0  10800-4 0  99912 58213  43.0003 175.7999 0001334 263.8729  96.1971 15.27577815160048

JSON: /api/v1/satellites/58213 · /tle

For live sub-satellite position, see the globe view (requires WebGL).

§ Visibility from observer

Set your observer location to see the next 7 days of passes ≥ 10°. The values pass through the URL so the page stays shareable.

No JS? Fill the form by hand. The geolocation button needs JavaScript.